EST,Max TemperatureF,Mean TemperatureF,Min TemperatureF,Max Dew PointF,MeanDew PointF,Min DewpointF,Max Humidity, Mean Humidity, Min Humidity, Max Sea Level PressureIn, Mean Sea Level PressureIn, Min Sea Level PressureIn, Max VisibilityMiles, Mean VisibilityMiles, Min VisibilityMiles, Max Wind SpeedMPH, Mean Wind SpeedMPH, Max Gust SpeedMPH,PrecipitationIn, CloudCover, Events, WindDirDegrees
2011-11-1,64,50,37,39,35,29,93,59,27,30.34,30.29,30.23,10,10,9,6,1,,0.00,0,,108
2011-11-2,63,52,41,38,36,35,79,60,38,30.41,30.33,30.27,10,10,10,12,4,17,0.00,0,,88
2011-11-3,68,54,42,57,48,37,100,83,50,30.27,29.98,29.85,10,7,2,15,4,23,0.58,6,Rain,251
2011-11-4,66,54,42,43,40,37,86,69,42,30.10,29.92,29.83,10,10,10,18,13,26,0.00,3,,313
2011-11-5,57,50,42,41,33,24,89,59,27,30.36,30.25,30.11,10,10,8,18,6,26,0.00,0,,77
2011-11-6,64,52,42,45,37,31,80,60,50,30.46,30.39,30.34,10,10,10,14,9,20,0.00,3,,79
2011-11-7,69,56,44,48,45,42,93,72,43,30.41,30.35,30.27,10,10,10,7,4,,0.00,1,,62
2011-11-8,69,58,48,49,47,44,89,70,45,30.29,30.23,30.16,10,10,10,8,3,,0.00,0,,86
2011-11-9,64,56,48,57,52,46,97,82,63,30.16,30.07,29.98,10,9,6,8,3,,0.01,6,Rain,97
2011-11-10,57,50,43,57,44,19,100,77,31,30.08,29.98,29.94,10,8,2,21,5,31,0.01,5,Rain,305
2011-11-11,54,44,33,25,19,14,59,41,21,30.23,30.16,30.09,10,10,10,12,8,18,0.00,0,,273
2011-11-12,61,48,35,33,29,27,89,50,27,30.32,30.26,30.22,10,10,10,9,4,,0.00,0,,237
2011-11-13,66,54,42,49,38,22,70,54,33,30.28,30.19,30.09,10,10,10,10,2,16,0.00,1,,167
2011-11-14,72,64,57,59,52,47,90,67,50,30.15,30.08,30.01,10,10,10,9,3,,0.00,8,,186
2011-11-15,72,66,60,64,62,56,100,89,64,30.06,30.00,29.94,10,7,2,13,5,22,0.39,8,Rain,216
2011-11-16,71,64,55,66,64,56,100,97,78,29.96,29.87,29.74,10,5,0,16,5,25,0.61,8,Fog-Rain-Thunderstorm,203
2011-11-17,55,47,35,55,39,19,100,72,35,30.32,30.03,29.83,10,10,10,22,9,31,0.00,3,Rain,298
2011-11-18,50,40,30,27,22,19,75,51,31,30.49,30.41,30.33,10,10,10,13,4,18,0.00,0,,91
2011-11-19,53,45,37,39,27,21,61,48,39,30.43,30.38,30.33,10,10,10,10,7,,0.00,7,,72
2011-11-20,61,56,50,57,53,39,100,93,62,30.38,30.33,30.26,10,4,0,7,4,,0.04,7,Fog-Rain,79
2011-11-21,70,64,57,62,59,56,100,92,71,30.31,30.26,30.17,10,5,0,10,2,,0.00,5,Fog,258
2011-11-22,73,66,60,63,60,57,100,88,55,30.17,30.03,29.93,10,7,1,17,7,25,0.73,7,Rain-Thunderstorm,208
2011-11-23,60,53,44,58,48,39,96,76,53,30.22,30.04,29.90,10,10,10,17,11,32,0.00,4,,292
2011-11-24,64,50,37,38,34,28,93,58,25,30.38,30.33,30.23,10,10,9,6,1,,0.00,0,,142
2011-11-25,63,49,35,38,32,27,92,56,27,30.41,30.34,30.28,10,10,10,7,1,,0.00,0,,120
2011-11-26,64,57,50,52,45,33,78,64,50,30.33,30.25,30.17,10,10,10,12,6,,0.00,7,,102
2011-11-27,69,62,55,56,52,49,93,72,49,30.15,30.02,29.89,10,10,10,14,8,23,0.00,7,Rain,129
2011-11-28,62,50,39,61,52,35,100,93,77,29.91,29.79,29.73,10,5,1,18,10,33,1.18,8,Rain,183
2011-11-29,39,37,35,36,34,33,93,88,81,29.96,29.86,29.81,10,10,2,15,7,20,0.05,8,Rain,237
2011-11-30,48,41,34,34,32,30,93,76,50,30.16,30.03,29.94,10,10,10,14,10,22,0.00,2,,289